Printer-friendly version

IAU Minor Planet Center

Minor Planet Center

MPEC 2006-S80 : 2006 SP134

The following Minor Planet Electronic Circular may be linked-to from your own Web pages, but must not otherwise be redistributed electronically.


Read MPEC 2006-S79 Read MPEC 2006-S81


M.P.E.C. 2006-S80                                Issued 2006 Sept. 28, 22:06 UT

     The Minor Planet Electronic Circulars contain information on unusual
         minor planets and routine data on comets.  They are published
   on behalf of Commission 20 of the International Astronomical Union by the
          Minor Planet Center, Smithsonian Astrophysical Observatory,
                          Cambridge, MA 02138, U.S.A.

                  Supported in part by the Brinson Foundation
                  Supported in part by the TABASGO Foundation
             Prepared using the Tamkin Foundation Computer Network

                              MPC@CFA.HARVARD.EDU
          URL http://cfa-www.harvard.edu/iau/mpc.html  ISSN 1523-6714

                                  2006 SP134

Observations:
     K06SD4P* C2006 09 26.27825 00 44 19.57 +01 34 03.9          20.9 V ES080691
     K06SD4P  C2006 09 26.28819 00 44 18.77 +01 34 00.3          21.0 V ES080691
     K06SD4P  C2006 09 26.29812 00 44 17.98 +01 33 56.7          21.2 V ES080691
     K06SD4P  C2006 09 27.20819 00 43 07.20 +01 28 30.1                 ES080291
     K06SD4P  C2006 09 27.21196 00 43 06.93 +01 28 29.0                 ES080291
     K06SD4P  C2006 09 27.21591 00 43 06.58 +01 28 27.3                 ES080291
     K06SD4P  C2006 09 27.24469 00 43 04.33 +01 28 17.1          20.2 V ES080G96
     K06SD4P  C2006 09 27.24534 00 43 04.32 +01 28 17.8          20.9 R ES080651
     K06SD4P  C2006 09 27.24895 00 43 03.96 +01 28 15.7          20.9 R ES080651
     K06SD4P  C2006 09 27.24934 00 43 03.93 +01 28 15.4          20.5 V ES080G96
     K06SD4P  C2006 09 27.25076 00 43 03.82 +01 28 15.4          21.1 R ES080651
     K06SD4P  C2006 09 27.25397 00 43 03.54 +01 28 13.6          20.4 V ES080G96
     K06SD4P  C2006 09 28.23992 00 41 46.84 +01 22 21.3                 ES080291
     K06SD4P  C2006 09 28.24402 00 41 46.49 +01 22 19.7                 ES080291
     K06SD4P  C2006 09 28.24909 00 41 46.10 +01 22 17.9                 ES080291
     K06SD4P  C2006 09 28.25165 00 41 45.92 +01 22 16.2          20.8 V ES080G96
     K06SD4P  C2006 09 28.27470 00 41 44.04 +01 22 08.1          21.0 V ES080G96

Observer details:
291 LPL/Spacewatch II.  Observer T. H. Bressi.  1.8-m f/2.7 reflector + CCD.
651 Grasslands Observatory, Tucson.  Observer J. E. McGaha.  0.62-m f/5.1
    Newtonian reflector + CCD.
691 Steward Observatory, Kitt Peak.  Observer J. V. Scotti.  0.9-m f/3
    reflector + CCD.
G96 Mt. Lemmon Survey.  Observer R. A. Kowalski.  Measurers E. C. Beshore,
    E. J. Christensen, G. J. Garradd, A. R. Gibbs, A. D. Grauer, R. E. Hill,
    R. A. Kowalski, S. M. Larson, R. H. McNaught.  1.5-m reflector + CCD.

Orbital elements:
2006 SP134                                               Earth MOID = 0.2241 AU
Epoch 2006 Sept. 22.0 TT = JDT 2454000.5                MPC
M  90.75541              (2000.0)            P               Q
n   0.32548494     Peri.  192.89426     -0.87374396     +0.48182535
a   2.0930621      Node    16.41668     -0.42277541     -0.68480141
e   0.7529618      Incl.   13.59911     -0.24048378     -0.54670958
P   3.03           H   16.7           G   0.15           U   9
Residuals in seconds of arc
060926 691  0.1+  0.0     060927 G96  0.2+  0.0     060928 291  0.2+  0.2+
060926 691  0.0   0.0     060927 651  0.9+  0.9+    060928 291  0.2-  0.0
060926 691  0.1-  0.1-    060927 651  0.3-  0.1+    060928 291  0.0   0.0
060927 291  0.1-  0.1-    060927 G96  0.2-  0.0     060928 G96  0.4+  0.7-
060927 291  0.3+  0.2+    060927 651  0.2-  0.4+    060928 G96  0.4-  0.6-
060927 291  0.2-  0.1-    060927 G96  0.6-  0.2-

Ephemeris:
2006 SP134               a,e,i = 2.09, 0.75, 14                  q = 0.5171
Date    TT    R. A. (2000) Decl.     Delta      r     Elong.  Phase     V
2006 09 22    00 49.86   +01 59.8    2.030    3.014   166.2     4.6    21.0
2006 10 02    00 36.92   +01 00.3    2.063    3.063   177.2     0.9    20.8
2006 10 12    00 24.54   +00 05.4    2.130    3.110   167.0     4.1    21.2
2006 10 22    00 13.62   -00 40.1    2.228    3.155   154.4     7.8    21.5
2006 11 01    00 04.82   -01 12.6    2.355    3.198   142.3    11.0    21.8
2006 11 11    23 58.47   -01 31.0    2.505    3.239   130.7    13.4    22.0

Kyle E. Smalley              (C) Copyright 2006 MPC           M.P.E.C. 2006-S80

Read MPEC 2006-S79 Read MPEC 2006-S81


Our Web policy. Index to the CBAT/MPC/ICQ pages.


Valid HTML 4.01!